Location: Castillon
(43.0896°N, 0.2156°E)
Time: 18:45:48
(UTC+00:00)

CZ-4B DEB - Pass Details

Date: 16 June 2021
Orbit: 404 x 407 km, 97.3° (Epoch: 02 August)

Event Time Altitude Azimuth Distance (km) Brightness Sun altitude
Exits shadow 20:40:54 - 89° (E) 1,776 7.0 -9.3°
Enters shadow 21:38:14 -70° 171° (S) 12,380 11.6 -16.0°
Maximum altitude 22:14:04 54° 259° (W) 499 4.6 -19.2°
